Date String (YYYY-MM-DD hh:mm:ss) UTC,Instrument flags,Ambient pressure (hPa),Sample flow (lpm),Bypass flow (lpm),Sample temperature (°C),Ambient temperature (°C),ASC tube jacket temperature (°C),LED temperature (°C),Box temperature (°C),Sample RH (%),Span deviation,Mass concentration (μg/m³),Mass concentration (μg/m³),Mass concentration (μg/m³)
DateTimeUTC,F1_M11,P_M11,Q1_M11,Q2_M11,T1_M11,T2_M11,T3_M11,T4_M11,T5_M11,U1_M11,ZSPAN_M11,X0_M11,X2_M11,X1_M11
2021-10-09 02:00:00,,0823.4,4.99,0.00,29.5,27.6,00.0,38.7,31.2,19.4,0000.0,0006.63,0002.13,0001.59
2021-10-09 02:01:00,,0823.4,5.00,0.00,29.5,27.9,00.0,38.7,31.3,19.4,0000.0,0006.53,0002.10,0001.59
2021-10-09 02:02:00,,0823.4,5.01,0.00,29.6,28.1,00.0,38.7,31.3,19.3,0000.0,0006.32,0002.07,0001.59
2021-10-09 02:03:00,,0823.6,4.99,0.00,29.6,28.2,00.0,38.7,31.4,19.4,0000.0,0005.97,0002.08,0001.61
2021-10-09 02:04:00,,0823.7,5.00,0.00,29.6,28.4,00.0,38.7,31.4,20.0,0000.0,0005.76,0002.05,0001.62
2021-10-09 02:05:00,,0823.7,5.01,0.00,29.6,28.5,00.0,38.7,31.5,20.3,0000.0,0005.61,0002.03,0001.61
2021-10-09 02:06:00,,0823.7,5.00,0.00,29.7,28.5,00.0,38.7,31.5,20.2,0000.0,0006.00,0002.05,0001.61
2021-10-09 02:07:00,,0823.7,5.00,0.00,29.7,28.6,00.0,38.8,31.5,19.8,0000.0,0005.70,0002.08,0001.62
2021-10-09 02:08:00,,0823.6,5.00,0.00,29.7,28.6,00.0,38.8,31.5,19.8,0000.0,0004.70,0002.07,0001.61
2021-10-09 02:09:00,,0823.5,5.00,0.00,29.7,28.6,00.0,38.8,31.5,20.1,0000.0,0004.80,0002.08,0001.61
2021-10-09 02:10:00,,0823.5,5.01,0.00,29.7,28.7,00.0,38.8,31.5,20.0,0000.0,0005.51,0002.06,0001.61
2021-10-09 02:11:00,,0823.4,5.00,0.00,29.7,28.8,00.0,38.8,31.5,19.9,0000.0,0005.80,0002.09,0001.62
2021-10-09 02:12:00,,0823.4,5.00,0.00,29.8,28.8,00.0,38.8,31.6,19.8,0000.0,0006.23,0002.17,0001.63
2021-10-09 02:13:00,,0823.4,4.99,0.00,29.8,28.9,00.0,38.8,31.6,19.7,0000.0,0006.37,0002.21,0001.65
2021-10-09 02:14:00,,0823.4,5.00,0.00,29.8,28.9,00.0,38.8,31.6,19.6,0000.0,0006.58,0002.24,0001.66
2021-10-09 02:15:00,,0823.4,5.00,0.00,29.8,29.0,00.0,38.8,31.7,19.6,0000.0,0006.63,0002.26,0001.67
2021-10-09 02:16:00,,0823.3,5.01,0.00,29.9,29.0,00.0,38.8,31.7,19.5,0000.0,0006.86,0002.28,0001.68
2021-10-09 02:17:00,,0823.3,5.00,0.00,29.9,29.0,00.0,38.9,31.7,19.4,0000.0,0007.36,0002.30,0001.69
2021-10-09 02:18:00,,0823.4,5.00,0.00,29.9,29.1,00.0,38.9,31.8,19.3,0000.0,0007.45,0002.32,0001.70
2021-10-09 02:19:00,,0823.4,5.00,0.00,29.9,29.1,00.0,38.9,31.7,19.3,0000.0,0007.74,0002.33,0001.72
2021-10-09 02:20:00,,0823.3,5.00,0.00,30.0,29.1,00.0,38.9,31.8,19.2,0000.0,0007.82,0002.32,0001.74
2021-10-09 02:21:00,,0823.2,5.00,0.00,30.0,29.1,00.0,39.0,31.8,19.2,0000.0,0007.38,0002.31,0001.73
2021-10-09 02:22:00,,0823.2,5.01,0.00,30.0,27.9,00.0,39.0,31.5,19.2,0000.0,0008.34,0002.32,0001.74
2021-10-09 02:23:00,,0823.1,5.00,0.00,29.8,26.3,00.0,38.9,31.1,19.4,0000.0,0008.21,0002.27,0001.74
2021-10-09 02:24:00,,0823.1,4.99,0.00,29.7,26.2,00.0,38.9,31.0,19.5,0000.0,0008.08,0002.27,0001.74
2021-10-09 02:25:00,,0823.1,5.00,0.00,29.6,26.6,00.0,38.9,31.0,19.7,0000.0,0007.95,0002.28,0001.73
2021-10-09 02:26:00,,0823.1,5.00,0.00,29.5,27.0,00.0,38.8,31.1,19.7,0000.0,0008.21,0002.29,0001.73
2021-10-09 02:27:00,,0823.1,5.00,0.00,29.5,27.3,00.0,38.8,31.1,19.7,0000.0,0009.08,0002.28,0001.73
2021-10-09 02:28:00,,0823.1,5.01,0.00,29.5,27.6,00.0,38.7,31.2,19.7,0000.0,0008.85,0002.28,0001.72
2021-10-09 02:29:00,,0823.0,5.00,0.00,29.5,27.9,00.0,38.7,31.3,19.7,0000.0,0008.27,0002.29,0001.72
2021-10-09 02:30:00,,0823.0,4.99,0.00,29.6,28.1,00.0,38.7,31.3,19.7,0000.0,0008.08,0002.32,0001.71
2021-10-09 02:31:00,,0823.1,4.99,0.00,29.6,28.2,00.0,38.7,31.4,19.7,0000.0,0007.98,0002.31,0001.70
2021-10-09 02:32:00,,0823.2,5.00,0.00,29.6,28.3,00.0,38.7,31.4,19.7,0000.0,0007.96,0002.31,0001.71
2021-10-09 02:33:00,,0823.2,4.99,0.00,29.6,28.4,00.0,38.7,31.4,19.7,0000.0,0006.48,0002.31,0001.72
2021-10-09 02:34:00,,0823.2,5.00,0.00,29.7,28.5,00.0,38.7,31.5,19.7,0000.0,0006.34,0002.33,0001.72
2021-10-09 02:35:00,,0823.2,5.01,0.00,29.7,28.6,00.0,38.7,31.5,19.7,0000.0,0006.86,0002.39,0001.72
2021-10-09 02:36:00,,0823.2,5.00,0.00,29.7,28.7,00.0,38.7,31.5,19.8,0000.0,0007.42,0002.40,0001.75
2021-10-09 02:37:00,,0823.3,5.01,0.00,29.7,28.7,00.0,38.8,31.5,19.9,0000.0,0007.34,0002.44,0001.79
2021-10-09 02:38:00,,0823.4,4.98,0.00,29.8,28.8,00.0,38.8,31.6,19.9,0000.0,0006.02,0002.50,0001.83
2021-10-09 02:39:00,,0823.4,5.00,0.00,29.8,28.8,00.0,38.8,31.6,19.9,0000.0,0005.91,0002.55,0001.87
2021-10-09 02:40:00,,0823.4,5.00,0.00,29.8,28.8,00.0,38.8,31.6,20.0,0000.0,0006.05,0002.55,0001.90
2021-10-09 02:41:00,,0823.4,5.00,0.00,29.8,28.8,00.0,38.8,31.6,20.0,0000.0,0006.19,0002.59,0001.92
2021-10-09 02:42:00,,0823.4,5.01,0.00,29.8,28.9,00.0,38.8,31.7,19.6,0000.0,0007.54,0002.64,0001.93
2021-10-09 02:43:00,,0823.4,5.00,0.00,29.9,28.9,00.0,38.8,31.7,19.4,0000.0,0007.77,0002.73,0001.94
2021-10-09 02:44:00,,0823.3,5.00,0.00,29.9,28.9,00.0,38.9,31.7,19.3,0000.0,0007.84,0002.77,0001.94
2021-10-09 02:45:00,,0823.3,4.98,0.00,29.9,28.9,00.0,38.9,31.7,19.3,0000.0,0007.81,0002.77,0001.94
2021-10-09 02:46:00,,0823.3,5.01,0.00,29.9,28.9,00.0,38.9,31.7,19.3,0000.0,0007.88,0002.75,0001.93
2021-10-09 02:47:00,,0823.4,4.99,0.00,29.9,29.0,00.0,38.9,31.7,19.1,0000.0,0007.80,0002.73,0001.92
2021-10-09 02:48:00,,0823.4,5.01,0.00,30.0,29.0,00.0,38.9,31.7,18.9,0000.0,0007.69,0002.69,0001.89
2021-10-09 02:49:00,,0823.4,5.01,0.00,30.0,29.0,00.0,39.0,31.8,19.0,0000.0,0007.59,0002.65,0001.85
2021-10-09 02:50:00,,0823.4,4.99,0.00,30.0,29.1,00.0,39.0,31.8,19.2,0000.0,0007.31,0002.61,0001.81
2021-10-09 02:51:00,,0823.5,5.00,0.00,30.0,29.1,00.0,39.0,31.7,19.3,0000.0,0007.07,0002.56,0001.78
2021-10-09 02:52:00,,0823.4,5.00,0.00,30.0,29.1,00.0,39.0,31.8,19.4,0000.0,0006.75,0002.49,0001.76
2021-10-09 02:53:00,,0823.4,5.00,0.00,30.1,29.1,00.0,39.0,31.9,19.5,0000.0,0005.21,0002.46,0001.76
2021-10-09 02:54:00,,0823.3,5.00,0.00,30.1,29.1,00.0,39.0,31.9,19.3,0000.0,0004.72,0002.36,0001.76
2021-10-09 02:55:00,,0823.3,5.00,0.00,30.0,28.1,00.0,39.1,31.6,19.1,0000.0,0004.58,0002.29,0001.75
2021-10-09 02:56:00,,0823.4,5.00,0.00,29.9,26.2,00.0,39.0,31.1,19.2,0000.0,0004.63,0002.28,0001.76
2021-10-09 02:57:00,,0823.4,5.00,0.00,29.7,26.1,00.0,39.0,31.0,19.4,0000.0,0003.87,0002.22,0001.75
2021-10-09 02:58:00,,0823.5,5.00,0.00,29.6,26.5,00.0,38.9,31.0,19.5,0000.0,0003.25,0002.19,0001.74
2021-10-09 02:59:00,,0823.6,5.00,0.00,29.6,26.9,00.0,38.9,31.1,19.5,0000.0,0003.25,0002.18,0001.73
